This demonstration page uses our WeatherBlox Daily Observations layout. Learn more.

Left ArrowRight Arrow

40.92945, -100.16068

Hourly Observations for February 6, 2016

Temp ( °F °C ) Dew Point ( °F °C ) Humidity (%) Winds ( mph kmh ) Pressure ( in mb ) Visibility ( mi km ) Precip ( " mm )
12:15 am 00:15 Clear 14 -9.9 12 -11.2 90 90 WNW 6 9 30.48 1032 10 16.0934 N/A
12:35 am 00:35 Clear 12 -11.2 9 -12.7 89 89 WNW 5 7 30.5 1033 10 16.0934 N/A
12:55 am 00:55 Clear 12 -11.1 9 -12.7 88 88 WNW 5 7 30.48 1032 10 16.0934 N/A
1:15 am 01:15 Clear 13 -10.8 10 -12.3 89 89 N N/A 30.48 1032 10 16.0934 N/A
1:35 am 01:35 Clear 15 -9.3 13 -10.7 90 90 WNW 6 9 30.48 1032 10 16.0934 N/A
1:55 am 01:55 Clear 11 -11.6 8 -13.1 89 89 WNW 6 9 30.5 1033 10 16.0934 N/A
2:15 am 02:15 Clear 11 -11.5 8 -13.4 86 86 WNW 6 9 30.48 1032 10 16.0934 N/A
2:35 am 02:35 Clear 10 -12 7 -13.8 87 87 WNW 3 6 30.5 1033 10 16.0934 N/A
2:55 am 02:55 Clear 11 -11.4 9 -13 88 88 NW 3 6 30.48 1032 10 16.0934 N/A
3:15 am 03:15 Clear 11 -11.5 8 -13.4 86 86 N N/A 30.48 1032 10 16.0934 N/A
3:35 am 03:35 Clear with Mist and Fog 12 -11.1 9 -12.7 88 88 N N/A 30.45 1031 4 6.43736 N/A
3:55 am 03:55 Mostly Cloudy with Mist and Fog 10 -12 7 -13.9 86 86 NW 3 6 30.48 1032 0.75 1.207005 N/A
4:15 am 04:15 Mostly Cloudy with Mist and Fog 11 -11.5 8 -13.4 86 86 N N/A 30.45 1031 1 1.60934 N/A
4:35 am 04:35 Clear with Mist and Fog 10 -12 7 -13.8 87 87 WNW 7 11 30.48 1032 5 8.0467 N/A
4:55 am 04:55 Clear with Mist and Fog 11 -11.5 8 -13.5 85 85 WNW 5 7 30.42 1030 5 8.0467 N/A
5:15 am 05:15 Clear with Mist and Fog N/A N/A N/A WNW 3 6 N/A 2.5 4.02335 N/A
5:35 am 05:35 Clear N/A N/A N/A WNW 6 9 N/A 10 16.0934 N/A
5:55 am 05:55 Clear N/A N/A N/A W 3 6 N/A 10 16.0934 N/A
6:15 am 06:15 Clear N/A N/A N/A W 5 7 N/A 10 16.0934 N/A
6:35 am 06:35 Clear N/A N/A N/A WNW 5 7 N/A 10 16.0934 N/A
6:55 am 06:55 Clear N/A N/A N/A NW 6 9 N/A 10 16.0934 N/A
7:15 am 07:15 Clear N/A N/A N/A N N/A N/A 10 16.0934 N/A
7:35 am 07:35 Clear N/A N/A N/A N N/A N/A 10 16.0934 N/A
7:55 am 07:55 Sunny N/A N/A N/A N N/A N/A 10 16.0934 N/A
8:15 am 08:15 Sunny N/A N/A N/A W 5 7 N/A 10 16.0934 N/A
8:35 am 08:35 Sunny N/A N/A N/A W 3 6 N/A 10 16.0934 N/A
8:55 am 08:55 Sunny N/A N/A N/A N N/A N/A 7 11.26538 N/A
9:15 am 09:15 Sunny N/A N/A N/A N N/A N/A 7 11.26538 N/A
9:35 am 09:35 Sunny N/A N/A N/A N N/A N/A 10 16.0934 N/A
9:55 am 09:55 Sunny N/A N/A N/A N N/A N/A 10 16.0934 N/A
10:15 am 10:15 Sunny N/A N/A N/A N N/A N/A 10 16.0934 N/A
10:35 am 10:35 Sunny 25 -3.8 23 -5 91 91 N N/A 30.33 1027 10 16.0934 N/A
10:55 am 10:55 Sunny 24 -4.6 19 -7 84 84 W 3 6 30.33 1027 10 16.0934 N/A
11:15 am 11:15 Sunny 28 -2.2 22 -5.8 77 77 W 7 11 30.3 1026 10 16.0934 N/A
11:35 am 11:35 Sunny 32 0.1 21 -6.2 63 63 WSW 10 17 30.27 1025 10 16.0934 N/A
11:55 am 11:55 Sunny 34 1 21 -6 60 60 W 13 20 30.27 1025 10 16.0934 N/A
12:15 pm 12:15 Sunny 35 1.6 21 -5.9 58 58 WSW 10 17 30.21 1023 10 16.0934 N/A
12:35 pm 12:35 Sunny 36 2 22 -5.5 58 58 WSW 10 17 30.18 1022 10 16.0934 N/A
12:55 pm 12:55 Sunny 37 2.6 23 -5.1 57 57 W 14 22 30.18 1022 10 16.0934 N/A
1:15 pm 13:15 Sunny 38 3.1 24 -4.7 57 57 W 14 22 30.18 1022 10 16.0934 N/A
1:35 pm 13:35 Sunny 38 3.5 24 -4.6 56 56 WSW 10 17 30.18 1022 10 16.0934 N/A
1:55 pm 13:55 Sunny 39 4.1 24 -4.4 54 54 WSW 10 17 30.15 1021 10 16.0934 N/A
2:15 pm 14:15 Sunny 39 3.9 25 -4 57 57 SW 10 17 30.15 1021 10 16.0934 N/A
2:35 pm 14:35 Sunny 38 3.6 25 -3.8 59 59 SW 9 15 30.09 1019 10 16.0934 N/A
2:55 pm 14:55 Sunny 40 4.3 26 -3.6 57 57 SW 8 13 30.09 1019 10 16.0934 N/A
3:15 pm 15:15 Sunny 40 4.7 26 -3.6 55 55 SW 9 15 30.09 1019 10 16.0934 N/A
3:35 pm 15:35 Sunny 39 4.1 26 -3.6 58 58 WSW 8 13 30.09 1019 10 16.0934 N/A
3:55 pm 15:55 Sunny 39 4 25 -4.1 56 56 WSW 10 17 30.09 1019 10 16.0934 N/A
4:15 pm 16:15 Sunny 38 3.2 24 -4.4 58 58 SW 13 20 30.12 1020 10 16.0934 N/A
4:35 pm 16:35 Sunny 38 3.1 25 -4 60 60 SW 14 22 30.12 1020 10 16.0934 N/A
4:55 pm 16:55 Sunny 38 3.1 25 -3.9 60 60 SW 12 19 30.09 1019 10 16.0934 N/A
5:15 pm 17:15 Sunny 37 3 25 -3.7 62 62 WSW 12 19 30.12 1020 10 16.0934 N/A
5:35 pm 17:35 Sunny 38 3.1 25 -3.9 60 60 SW 14 22 30.09 1019 10 16.0934 N/A
5:55 pm 17:55 Sunny 38 3.1 26 -3.6 62 62 SW 14 22 30.09 1019 10 16.0934 N/A
6:15 pm 18:15 Clear 37 3 26 -3.5 63 63 WSW 12 19 30.09 1019 10 16.0934 N/A
6:35 pm 18:35 Clear 38 3.2 26 -3.6 61 61 WSW 10 17 30.09 1019 10 16.0934 N/A
6:55 pm 18:55 Clear 37 3 25 -3.7 62 62 SW 13 20 30.06 1018 10 16.0934 N/A
7:15 pm 19:15 Clear 37 2.7 25 -3.7 63 63 WSW 9 15 30.09 1019 10 16.0934 N/A
7:35 pm 19:35 Clear 35 1.7 25 -3.7 68 68 WSW 7 11 30.06 1018 10 16.0934 N/A
7:55 pm 19:55 Clear 36 2.1 25 -3.8 65 65 WSW 10 17 30.06 1018 10 16.0934 N/A
8:15 pm 20:15 Clear 34 1.1 25 -4 69 69 W 8 13 30.06 1018 10 16.0934 N/A
8:35 pm 20:35 Clear 34 1 25 -4 70 70 W 8 13 30.06 1018 10 16.0934 N/A
8:55 pm 20:55 Clear 33 0.5 25 -3.9 73 73 W 8 13 30.06 1018 10 16.0934 N/A
9:15 pm 21:15 Clear 34 1.2 26 -3.5 71 71 W 7 11 30.06 1018 10 16.0934 N/A
9:35 pm 21:35 Clear 36 2 27 -3 70 70 W 10 17 30.06 1018 10 16.0934 N/A
9:55 pm 21:55 Clear 35 1.7 26 -3.1 71 71 WNW 9 15 30.06 1018 10 16.0934 N/A
10:15 pm 22:15 Clear 35 1.4 26 -3.2 72 72 WNW 9 15 30.09 1019 10 16.0934 N/A
10:35 pm 22:35 Clear 33 0.3 26 -3.5 76 76 WNW 9 15 30.12 1020 10 16.0934 N/A
10:55 pm 22:55 Clear 35 1.4 27 -3 73 73 WNW 16 26 30.09 1019 10 16.0934 N/A
11:15 pm 23:15 Clear 37 2.8 27 -2.7 67 67 WNW 17 28 30.12 1020 10 16.0934 N/A
11:35 pm 23:35 Clear 36 2.1 27 -2.7 71 71 WNW 17 28 30.12 1020 10 16.0934 N/A
11:55 pm 23:55 Clear 35 1.9 27 -2.6 72 72 WNW 14 22 30.12 1020 10 16.0934 N/A

Powered by AerisWeather